Overview Statistics Trail Chart Weather Telemetry Raw packets
 

This is the latest recevied weather packets stored in our database for station/object KQ4KX. If no packets are shown the sender has not sent any weather packets the latest 10 day(s).

<< 28 29 30 31 32 33 34 >>
Time Temp. Humidity Pressure Rain* Wind** Luminosity Snow
1788477036 26.11° C 96% 1014.3 hPa 0.76 mm - - -
1788476074 26.11° C 96% 1014.3 hPa 0 mm - - -
1788475414 26.11° C 96% 1014 hPa 0 mm - - -
1788474754 26.11° C 95% 1013.8 hPa 0 mm - - -
1788474424 26.67° C 94% 1013.8 hPa 0 mm - - -
1788474094 26.67° C 92% 1013.9 hPa 0 mm - - -
1788473794 27.22° C 91% 1013.9 hPa 0 mm - - -
1788473464 27.78° C 90% 1013.9 hPa 0 mm - - -
1788472835 28.33° C 89% 1013.7 hPa 0 mm - - -
1788472059 28.89° C 89% 1013.5 hPa 0.25 mm - - -
1788471904 28.89° C 89% 1013.5 hPa 0.25 mm - - -
1788471574 28.89° C 91% 1013.3 hPa 0.25 mm - - -
1788471244 28.89° C 90% 1013.2 hPa 0.25 mm - - -
1788470914 28.89° C 89% 1013 hPa 0.51 mm - - -
1788470615 29.44° C 89% 1013 hPa 1.78 mm - - -
1788469832 30.56° C 87% 1012.9 hPa 1.78 mm - - -
1788469654 30.56° C 87% 1012.9 hPa 1.78 mm - - -
1788469324 30.56° C 86% 1012.8 hPa 1.78 mm - - -
1788469230 30.56° C 87% 1012.6 hPa 1.78 mm - - -
1788469024 30.56° C 87% 1012.6 hPa 1.78 mm - - -
1788468424 30° C 87% 1012.4 hPa 1.78 mm - - -
1788468095 30° C 87% 1012.5 hPa 1.52 mm - - -
1788467794 30.56° C 87% 1012.8 hPa 1.52 mm - - -
1788467494 31.67° C 82% 1013 hPa 1.52 mm - - -
1788467164 32.22° C 85% 1012.9 hPa 0.76 mm - - -

* Rain latest hour (hover to see other rain measurements)
** Current wind speed in m/s (hover to see current wind gust speed)